Powrót do katalogu

STARLINK-34425

AktywnyŁącznośćVLEO
NORAD 64350·PAYLOAD·🇺🇸 United States

Wystrzelony Jun 13, 2025 z Vandenberg Space Force Base

Loading…

Następne Przeloty (najbliższe 24 godziny)

TLE

ŚwieżeSource: CelesTrak SupGP

Epoka: Sep 15, 2026, 02:58 UTC

1 64350C 25126G   26258.12409722 -.00026401  00000+0 -91827-3 0  2586
2 64350  69.9999 275.2212 0003387 267.5693 231.1207 15.29596436    18

Śledź STARLINK-34425 w czasie rzeczywistym z AllMySat

Download on the App Store